EHI
0 0 0 0 0 0 0 0 0 0 0 0 0 0 0 0 0 0 0 0 0 0 0 0 0 0 0 0 0 0 0 0 0 0 0 0 0 0 0 0 0 0 0
0 0 0 0 0 0 0 0 0 0 0 0 0 0 0 0 0 0 0 0 0 0 0 0 0 0 0 0 0 0 0 0 0 0 0 0 0 0 0 0 0 0 0
0 0 0 0 0 0 0 0 0 0 0 0 0 0 0 0 0 0 0 0 0 0 0 0 0 0 0 0 0 0 0 0 0 0 0 0 0 0 0 0 0 0 0
0 0 0 0 0 0 0 0 0 0 0 0 0 0 0 0 0 0 0 0 0 0 0 0 0 0 0 0 0 0 0 0 0 0 0 0 0 0 0 0 0 0 0
0 0 0 0 0 0 0 0 0 0 0 0 0 0 0 0 0 0 0 0 0 0 0 0 0 0 0 0 0 0 0 0 0 0 0 0 0 0 0 0 0 0 0
0 0 0 0 0 0 0 0 0 0 0 0 0 0 0 0 0 0 0 0 0 0 0 0 0 0 0 0 0 0 0 0 0 0 0 0 0 0 0 0 0 0 0
0 0 0 0 0 0 0 0 0 0 0 0 0 0 0 0 0 0 0 0 0 0 0 0 0 0 0 0 0 0 0 0 0 0 0 0 0 0 0 0 0 0 0
0 0 0 0 0 0 0 0 0 0 0 0 0 0 0 0 0 0 0 0 0 0 0 0 0 0 0 0 0 0 0 0 0 0 0 0 0 0 0 0 0 0 0
0 0 0 0 0 0 0 0 0 0 0 0 0 0 0 0 0 0 0 0 0 0 0 0 0 0 0 0 0 0 0 0 0 0 0 0 0 0 0 0 0 0 0
0 0 0 0 0 0 0 0 0 0 0 0 0 0 0 0 0 0 0 0 0 0 0 0 0 0 0 0 0 0 0 0 0 0 0 0 0 0 0 0 0 0 0
0 0 0 0 0 0 0 0 0 0 0 0 0 0 0 0 0 0 0 0 0 0 0 0 0 0 0 0 0 0 0 0 0 0 0 0 0 0 0 0 0 0 0
0 0 0 0 0 0 0 0 0 0 0 0 0 0 0 0 0 0 0 0 0 0 0 0 0 0 0 0 0 0 0 0 0 0 0 0 0 0 0 0 0 0 0
0 0 0 0 0 0 0 0 0 0 0 0 0 0 0 0 0 0 0 0 0 0 0 0 0 0 0 0 0 0 0 0 0 0 0 0 0 0 0 0 0 0 0
0 0 0 0 0 0 0 0 0 0 0 0 0 0 0 0 0 0 0 0 0 0 0 0 0 0 0 0 0 0 0 0 0 0 0 0 0 0 0 0 0 0 0
0 0 0 0 0 0 0 0 0 0 0 0 0 0 0 0 0 0 0 0 0 0 0 0 0 0 0 0 0 0 0 0 0 0 0 0 0 0 0 0 0 0 0
0 0 0 0 0 0 0 0 0 0 0 0 0 0 0 0 0 0 0 0 0 0 0 0 0 0 0 0 0 0 0 0 0 0 0 0 0 0 0 0 0 0 0
0 0 0 0 0 0 0 0 0 0 0 0 0 0 0 0 0 0 0 0 0 0 0 0 0 0 0 0 0 0 0 0 0 0 0 0 0 0 0 0 0 0 0
0 0 0 0 0 0 0 0 0 0 0 0 0 0 0 0 0 0 0 0 0 0 0 0 0 0 0 0 0 0 0 0 0 0 0 0 0 0 0 0 0 0 0
0 0 0 0 0 0 0 0 0 0 0 0 0 0 0 0 0 0 0 0 0 0 0 0 0 0 0 0 0 0 0 0 0 0 0 0 0 0 0 0 0 0 0
0 0 0 0 0 0 0 0 0 0 0 0 0 0 0 0 0 0 0 0 0 0 0 0 0 0 0 0 0 0 0 0 0 0 0 0 0 0 0 0 0 0 0
0 0 0 0 0 0 0 0 0 0 0 0 0 0 0 0 0 0 0 0 0 0 0 0 0 0 0 0 0 0 0 0 0 0 0 0 0 0 0 0 0 0 0
0 0 0 0 0 0 0 0 0 0 0 0 0 0 0 0 0 0 0 0 0 0 0 0 0 0 0 0 0 0 0 0 0 0 0 0 0 0 0 0 0 0 0
0 0 0 0 0 0 0 0 0 0 0 0 0 0 0 0 0 0 0 0 0 0 0 0 0 0 0 0 0 0 0 0 0 0 0 0 0 0 0 0 0 0 0
0 0 0 0 0 0 0 0 0 0 0 0 0 0 0 0 0 0 0 0 0 0 0 0 0 0 0 0 0 0 0 0 0 0 0 0 0 0 0 0 0 0 0
0 0 0 0 0 0 0 0 0 0 0 0 0 0 0 0 0 0 0 0 0 0 0 0 0 0 0 0 0 0 0 0 0 0 0 0 0 0 0 0 0 0 0
0 0 0 0 0 0 0 0 0 0 0 0 0 0 0 0 0 0 0 0 0 0 0 0 0 0 0 0 0 0 0 0 0 0 0 0 0 0 0 0 0 0 0
Wind_Speed
5 4 4 3 2 2 1 2 2 1 1 0 1 1 1 1 1 1 0 1 1 1 1 1 0 1 1 1 1 1 1 2 2 1 0 0 0 0 0 0 1 2 2
6 5 4 3 3 2 2 2 1 1 1 1 0 1 1 1 1 1 0 0 1 0 0 1 0 1 1 1 1 1 1 2 3 2 0 0 0 1 1 1 1 1 1
6 5 4 4 3 3 2 2 1 1 1 0 1 1 1 0 1 0 0 0 1 0 1 1 1 2 1 1 1 1 1 1 2 2 1 0 0 0 1 0 0 0 1
6 6 5 5 5 4 3 2 1 1 1 1 1 0 0 0 0 0 1 1 1 0 0 1 1 2 2 2 2 1 1 1 1 2 1 0 0 1 1 0 1 1 1
7 7 7 6 5 4 3 2 2 1 1 2 1 0 1 0 0 1 1 1 1 1 1 1 0 1 2 2 2 2 2 2 1 1 1 0 0 0 0 0 0 1 1
8 8 6 5 5 4 4 3 2 1 1 1 1 1 1 1 0 2 3 2 1 1 1 1 1 1 0 2 3 4 5 4 3 2 1 1 1 1 1 1 1 0 2
8 7 7 6 6 5 4 3 3 2 2 2 2 1 1 2 0 2 3 3 2 1 1 1 1 1 1 0 1 1 2 3 5 4 3 3 3 3 2 1 1 2 2
8 8 7 7 7 5 4 4 4 3 2 2 2 2 1 2 1 1 3 3 2 1 0 1 0 1 1 1 1 1 0 1 2 2 3 3 3 3 3 3 2 1 1
8 8 9 8 7 6 6 5 4 3 2 2 2 2 2 2 1 1 3 2 2 1 1 0 0 0 1 2 2 2 0 2 1 2 2 2 2 2 2 2 1 1 1
10 10 9 9 8 8 7 6 4 3 3 3 2 2 2 2 1 1 4 2 2 0 1 2 1 1 1 2 2 2 1 1 1 1 1 2 1 1 0 2 3 2 1
9 8 8 8 9 8 6 4 4 4 3 2 2 1 1 2 2 2 4 3 2 1 0 1 1 2 2 2 3 2 2 1 1 1 1 1 2 1 1 0 1 2 2
7 7 8 8 8 7 6 5 4 4 4 3 2 1 1 1 1 2 4 4 4 3 1 1 1 2 3 4 3 3 3 3 2 2 2 2 1 1 1 1 0 1 1
7 7 7 7 6 6 7 6 4 4 4 3 3 3 2 1 1 2 3 4 4 3 2 2 3 3 4 3 5 5 4 3 2 2 1 1 1 1 1 1 2 2 2
8 7 6 6 5 5 5 6 5 5 5 4 4 4 3 2 1 1 1 2 3 2 1 2 4 5 4 4 4 4 3 2 2 1 1 1 1 2 2 2 2 2 2
7 6 6 6 6 5 4 4 6 6 7 7 6 5 5 4 5 6 4 3 3 3 3 2 2 2 2 2 2 2 2 2 2 2 2 2 2 2 2 2 2 2 2
5 5 5 5 4 5 4 2 2 4 6 9 9 8 5 6 6 6 7 6 6 8 5 3 2 2 2 1 1 1 2 2 1 1 2 2 2 2 2 2 2 2 2
7 6 5 5 6 6 5 5 4 1 1 4 7 9 8 8 8 7 7 6 6 9 4 3 3 2 2 2 2 2 1 1 1 2 2 2 2 2 2 2 2 2 2
6 7 6 6 6 6 6 6 6 6 4 2 3 7 8 8 8 8 8 7 3 3 3 3 3 3 3 2 2 2 2 2 2 2 2 2 2 2 2 2 2 1 1
6 5 5 5 5 5 5 5 5 6 5 4 2 2 6 6 6 7 8 4 5 4 4 3 3 3 3 3 3 2 2 2 2 2 2 2 2 2 2 1 1 2 1
5 8 6 5 5 5 5 5 5 5 6 5 5 5 4 4 3 4 4 4 4 4 4 4 4 4 3 3 3 3 3 2 2 2 2 1 1 2 2 1 1 1 0
4 5 8 5 5 6 6 6 6 6 6 6 6 6 9 6 6 6 5 5 5 5 5 5 4 4 4 3 3 4 4 3 2 2 2 1 1 1 1 1 0 0 0
4 4 5 5 5 5 5 6 6 6 7 7 4 5 11 5 5 5 5 5 5 4 5 5 5 4 4 4 5 5 4 3 2 2 2 1 1 1 1 0 0 0 0
4 4 4 4 4 6 6 5 6 6 7 7 6 6 6 6 5 5 5 5 4 4 4 5 5 4 3 3 4 4 5 4 3 3 2 1 1 1 1 0 1 1 1
5 5 5 5 5 5 6 6 6 6 6 7 7 6 6 6 6 6 6 5 5 5 4 5 5 7 7 5 3 3 3 3 3 2 3 2 1 1 1 1 1 1 1
5 5 5 5 5 6 6 6 6 6 6 7 7 6 6 6 6 6 6 6 6 6 6 5 5 6 8 8 6 5 6 6 4 2 2 2 1 1 1 1 1 1 2
4 5 4 4 5 5 6 6 6 6 6 6 6 6 7 7 7 6 6 6 6 6 6 5 6 7 8 6 7 8 7 6 4 4 2 2 2 2 1 1 2 2 2
Wind_Direction
184 186 180 194 203 194 202 241 257 268 281 1 15 25 18 14 34 60 38 56 88 45 53 126 214 156 115 106 113 123 134 138 157 257 299 287 177 172 18 206 206 205 212
183 177 182 186 185 190 221 247 248 250 263 227 100 42 21 18 40 95 356 46 110 139 198 97 32 126 107 98 111 123 141 154 153 167 286 358 8 197 181 203 247 215 218
176 172 177 183 188 204 226 240 237 233 258 234 103 71 27 31 58 111 153 128 116 174 187 158 172 128 121 119 124 132 139 132 139 151 183 315 336 54 86 80 61 333 255
174 174 181 192 197 205 215 219 221 201 177 171 168 212 267 155 83 98 105 87 85 113 174 159 173 162 172 160 154 159 137 113 121 133 141 74 6 356 82 76 356 330 289
175 182 194 198 196 196 200 205 209 194 181 180 177 305 326 320 164 129 134 125 108 79 57 59 119 173 180 170 158 163 145 129 119 125 138 80 356 26 213 215 242 305 295
182 192 193 188 189 192 195 197 197 207 201 174 198 225 296 298 60 126 130 123 122 112 81 26 3 17 196 182 166 158 157 155 161 159 170 184 230 222 206 188 165 47 298
189 192 189 186 189 197 195 189 201 213 202 195 218 216 252 283 293 114 131 126 115 120 115 58 6 7 31 113 123 118 160 172 172 167 176 206 208 211 184 194 199 197 232
191 194 192 188 192 194 190 197 208 204 200 206 214 211 221 271 248 125 123 111 99 90 116 155 159 327 317 156 142 115 181 255 224 187 188 211 220 216 195 194 198 215 290
194 196 195 190 189 189 195 203 202 193 201 203 201 197 200 266 273 141 118 107 96 29 336 333 119 5 355 120 126 136 65 316 280 196 201 223 226 213 178 127 119 108 329
202 200 195 189 189 193 199 199 192 186 196 193 193 195 194 229 257 159 135 124 118 88 359 352 11 40 24 92 131 142 155 287 343 16 10 355 352 352 122 163 166 159 174
200 193 190 192 193 194 192 187 180 178 176 179 184 201 202 223 247 187 152 144 160 158 155 318 322 13 47 80 117 144 182 176 108 76 43 24 23 18 8 3 175 167 169
185 188 193 195 195 187 176 179 174 169 169 179 175 192 250 258 243 203 167 158 157 152 180 223 254 72 74 70 79 76 85 89 84 73 62 35 14 346 329 337 13 157 159
180 190 194 192 191 180 176 178 173 171 173 184 181 193 226 252 260 206 174 165 159 154 169 147 108 83 69 57 57 65 73 79 85 85 77 9 316 324 359 12 22 46 50
188 193 187 183 185 183 180 179 177 181 183 185 188 196 210 223 233 232 198 174 160 149 134 98 83 73 70 61 52 48 59 80 101 102 95 31 29 41 37 31 36 26 37
193 193 188 184 178 178 181 189 188 197 194 188 195 190 188 209 225 206 182 179 176 166 130 88 71 65 61 48 44 44 47 57 66 60 70 64 53 51 36 26 42 54 61
189 192 188 181 179 174 168 172 210 201 196 194 191 185 196 202 195 184 179 176 167 149 126 120 129 130 131 128 109 73 53 54 55 73 76 75 72 71 56 41 49 63 60
194 193 188 184 181 180 178 176 179 207 148 190 193 190 188 186 183 176 169 162 155 143 133 147 156 161 158 150 137 123 106 69 72 79 78 75 77 72 67 56 50 54 51
199 195 188 190 188 187 188 189 184 179 184 205 213 199 193 189 184 176 159 134 128 142 155 162 168 167 160 154 147 135 119 91 78 77 76 72 75 81 75 63 55 56 44
198 197 194 190 190 190 188 187 187 187 185 177 166 189 191 181 173 168 154 151 163 170 171 165 163 160 158 154 149 139 128 118 106 100 90 86 87 93 89 77 65 48 46
205 201 190 188 187 187 187 187 188 187 186 184 187 187 166 147 159 168 170 167 166 170 168 164 162 157 154 150 142 133 124 117 112 106 107 101 94 99 103 92 81 68 21
204 201 192 188 192 192 190 192 191 188 190 193 197 191 176 173 177 177 177 177 176 174 170 164 161 156 150 144 140 136 134 132 130 128 124 120 114 108 109 110 107 84 340
198 198 197 198 198 197 195 192 191 192 192 190 186 184 180 173 174 175 177 179 178 174 167 160 158 160 160 158 154 148 145 145 144 142 139 137 134 134 137 139 191 305 304
197 199 202 203 201 197 193 192 193 193 191 188 181 177 178 181 179 178 177 173 166 163 160 156 153 152 151 150 151 153 155 163 166 161 155 156 160 173 186 213 239 274 299
200 200 202 205 203 198 195 193 193 193 189 185 182 180 180 181 178 175 171 162 157 153 153 155 157 158 154 147 142 142 147 153 154 157 158 164 176 189 197 232 253 263 285
206 205 205 205 204 200 195 190 189 188 188 186 183 180 177 173 171 167 164 160 156 156 157 155 155 156 157 155 153 154 159 157 156 160 161 161 177 203 226 249 257 275 284
209 210 209 206 205 198 191 188 188 185 184 184 181 176 175 173 170 166 162 160 159 157 157 155 156 158 158 159 161 162 162 162 167 170 167 170 183 209 224 241 258 272 283